Tracking 29493 objects as of 9-Sep-2024
HD Live streaming from Space Station
objects crossing your sky now

FENGYUN 1C DEB

Track FENGYUN 1C DEB now!
10-day predictions


NORAD ID: 32304
Int'l Code: 1999-025CWV
Perigee: 714.8 km
Apogee: 797.3 km
Inclination: 99.4 °
Period: 99.8 minutes
Semi major axis: 7127 km
RCS: 0.0093 m2 (small)
Launch date: May 10, 1999
Source: People's Republic of China (PRC)
Launch site: Taiyaun Space Center, China (TSC)

Note: This is SATELLITE DEBRIS
Your satellite tracking list
Your tracking list is empty




NASA's NSSDC Master Catalog

Two Line Element Set (TLE):
1 32304U 99025CWV 24251.95418250  .00015153  00000-0  44493-2 0  9996
2 32304  99.3780 150.9055 0057906 145.9870 214.5050 14.42903347896070
Source of the keplerian elements: AFSPC